| time (UTC) | temp F | wind direction | speed MPH | gust MPH | rain 1hr in | rain 24hr in | rain mn in | humidity % | barometer mb |
| 20260506211403 | 43 | 316 | 2.0 | 4.0 | 0.00 | 0.63 | 0.56 | 93 | 1006.1 |
| 20260506210404 | 43 | 319 | 0.0 | 6.0 | 0.00 | 0.63 | 0.56 | 93 | 1006.2 |
| 20260506205403 | 43 | 274 | 2.0 | 4.0 | 0.03 | 0.63 | 0.56 | 93 | 1006.5 |
| 20260506204425 | 43 | 272 | 3.0 | 8.0 | 0.03 | 0.63 | 0.56 | 93 | 1006.5 |
| 20260506203404 | 44 | 350 | 1.0 | 5.0 | 0.03 | 0.63 | 0.56 | 93 | 1006.3 |
| 20260506202403 | 43 | 325 | 0.0 | 4.0 | 0.02 | 0.62 | 0.55 | 93 | 1006.3 |
| 20260506201403 | 44 | 300 | 0.0 | 7.0 | 0.01 | 0.62 | 0.54 | 93 | 1006.2 |
| 20260506200403 | 44 | 354 | 1.0 | 4.0 | 0.01 | 0.70 | 0.54 | 93 | 1006.2 |
| 20260506195404 | 44 | 351 | 1.0 | 4.0 | 0.01 | 0.72 | 0.53 | 93 | 1006.1 |
| 20260506194425 | 44 | 351 | 0.0 | 5.0 | 0.01 | 0.72 | 0.53 | 93 | 1006.0 |
| 20260506193446 | 44 | 354 | 1.0 | 5.0 | 0.00 | 0.71 | 0.52 | 93 | 1005.9 |
| 20260506192403 | 44 | 12 | 0.0 | 4.0 | 0.00 | 0.71 | 0.52 | 93 | 1005.8 |
| 20260506191403 | 44 | 12 | 1.0 | 4.0 | 0.00 | 0.71 | 0.52 | 93 | 1005.8 |
| 20260506190426 | 43 | 342 | 1.0 | 4.0 | 0.00 | 0.77 | 0.52 | 93 | 1005.9 |
| 20260506185403 | 43 | 351 | 0.0 | 3.0 | 0.02 | 0.78 | 0.52 | 93 | 1005.9 |
| 20260506184424 | 43 | 354 | 1.0 | 4.0 | 0.02 | 0.78 | 0.52 | 93 | 1005.9 |
| 20260506183403 | 43 | 354 | 0.0 | 5.0 | 0.01 | 0.78 | 0.51 | 93 | 1006.1 |
| 20260506182403 | 43 | 9 | 3.0 | 9.0 | 0.01 | 0.83 | 0.51 | 93 | 1006.4 |
| 20260506181404 | 43 | 343 | 2.0 | 6.0 | 0.00 | 0.84 | 0.50 | 93 | 1006.4 |
| 20260506180403 | 43 | 12 | 2.0 | 7.0 | 0.00 | 0.84 | 0.50 | 93 | 1006.6 |
| 20260506175403 | 43 | 5 | 0.0 | 3.0 | 0.02 | 0.84 | 0.50 | 93 | 1006.6 |
| 20260506174404 | 42 | 5 | 1.0 | 11.0 | 0.02 | 0.84 | 0.50 | 93 | 1006.7 |
| 20260506173404 | 43 | 338 | 2.0 | 6.0 | 0.01 | 0.83 | 0.49 | 93 | 1006.7 |
| 20260506172403 | 42 | 328 | 0.0 | 6.0 | 0.01 | 0.83 | 0.49 | 93 | 1006.7 |
| 20260506171403 | 42 | 313 | 0.0 | 8.0 | 0.00 | 0.82 | 0.48 | 93 | 1006.8 |
| 20260506170403 | 42 | 351 | 1.0 | 8.0 | 0.00 | 0.82 | 0.48 | 93 | 1006.5 |
| 20260506165403 | 42 | 335 | 1.0 | 4.0 | 0.06 | 0.81 | 0.47 | 93 | 1006.9 |
| 20260506164402 | 42 | 360 | 0.0 | 5.0 | 0.05 | 0.80 | 0.46 | 93 | 1006.9 |
| 20260506163403 | 42 | 349 | 1.0 | 6.0 | 0.04 | 0.79 | 0.45 | 93 | 1007.1 |
| 20260506162445 | 42 | 340 | 1.0 | 9.0 | 0.03 | 0.78 | 0.44 | 93 | 1007.1 |
| 20260506161403 | 42 | 348 | 0.0 | 9.0 | 0.02 | 0.77 | 0.43 | 93 | 1007.1 |
| 20260506160424 | 42 | 334 | 2.0 | 8.0 | 0.01 | 0.76 | 0.42 | 92 | 1007.1 |
| 20260506155403 | 42 | 12 | 0.0 | 5.0 | 0.11 | 0.74 | 0.40 | 92 | 1007.3 |
| 20260506154403 | 42 | 19 | 0.0 | 4.0 | 0.09 | 0.72 | 0.38 | 92 | 1007.3 |
| 20260506153403 | 42 | 9 | 0.0 | 5.0 | 0.07 | 0.70 | 0.36 | 92 | 1007.4 |
| 20260506152403 | 42 | 292 | 1.0 | 5.0 | 0.05 | 0.68 | 0.34 | 92 | 1007.6 |
| 20260506151403 | 42 | 351 | 2.0 | 6.0 | 0.03 | 0.66 | 0.32 | 92 | 1007.2 |
| 20260506150445 | 43 | 302 | 1.0 | 7.0 | 0.01 | 0.64 | 0.30 | 92 | 1007.0 |
| 20260506145403 | 42 | 6 | 1.0 | 8.0 | 0.06 | 0.63 | 0.29 | 92 | 1006.9 |
| 20260506144403 | 43 | 354 | 1.0 | 10.0 | 0.04 | 0.61 | 0.27 | 92 | 1007.1 |
| 20260506143403 | 43 | 350 | 1.0 | 6.0 | 0.03 | 0.60 | 0.26 | 92 | 1007.0 |
| 20260506142403 | 43 | 15 | 0.0 | 6.0 | 0.02 | 0.59 | 0.25 | 92 | 1007.1 |
| 20260506141402 | 42 | 353 | 2.0 | 6.0 | 0.02 | 0.59 | 0.25 | 92 | 1007.3 |
| 20260506140424 | 43 | 5 | 0.0 | 9.0 | 0.01 | 0.58 | 0.24 | 92 | 1007.1 |
| 20260506135425 | 43 | 5 | 2.0 | 8.0 | 0.01 | 0.56 | 0.22 | 92 | 1007.1 |
| 20260506134403 | 43 | 10 | 2.0 | 9.0 | 0.01 | 0.56 | 0.22 | 91 | 1006.8 |
| 20260506133403 | 43 | 342 | 3.0 | 6.0 | 0.00 | 0.55 | 0.21 | 91 | 1007.1 |
| 20260506132403 | 43 | 297 | 1.0 | 4.0 | 0.00 | 0.55 | 0.21 | 92 | 1007.2 |
| 20260506131403 | 43 | 296 | 0.0 | 4.0 | 0.00 | 0.55 | 0.21 | 91 | 1007.5 |
| 20260506130403 | 42 | 295 | 1.0 | 3.0 | 0.00 | 0.55 | 0.21 | 91 | 1007.4 |
| 20260506125403 | 43 | 295 | 0.0 | 3.0 | 0.04 | 0.54 | 0.20 | 91 | 1007.4 |
| 20260506124403 | 43 | 293 | 1.0 | 8.0 | 0.04 | 0.54 | 0.20 | 91 | 1007.7 |
| 20260506123403 | 43 | 307 | 0.0 | 4.0 | 0.03 | 0.53 | 0.19 | 91 | 1007.4 |
| 20260506122403 | 43 | 285 | 1.0 | 4.0 | 0.02 | 0.52 | 0.18 | 91 | 1007.4 |
| 20260506121404 | 44 | 283 | 2.0 | 7.0 | 0.02 | 0.52 | 0.18 | 91 | 1008.0 |
| 20260506120403 | 44 | 281 | 0.0 | 3.0 | 0.00 | 0.50 | 0.16 | 92 | 1008.1 |
| 20260506115403 | 44 | 277 | 0.0 | 3.0 | 0.04 | 0.49 | 0.15 | 92 | 1008.1 |
| 20260506114403 | 45 | 277 | 0.0 | 7.0 | 0.03 | 0.48 | 0.14 | 92 | 1008.3 |
| 20260506113403 | 45 | 11 | 0.0 | 0.0 | 0.02 | 0.47 | 0.13 | 92 | 1008.1 |
| 20260506112402 | 45 | 11 | 0.0 | 5.0 | 0.01 | 0.46 | 0.12 | 91 | 1007.8 |
| 20260506111403 | 45 | 15 | 0.0 | 2.0 | 0.00 | 0.45 | 0.11 | 91 | 1007.3 |
| 20260506110402 | 45 | 15 | 0.0 | 2.0 | 0.00 | 0.45 | 0.11 | 91 | 1007.2 |
| 20260506105403 | 45 | 16 | 0.0 | 3.0 | 0.01 | 0.45 | 0.11 | 91 | 1007.2 |
| 20260506104403 | 45 | 16 | 0.0 | 2.0 | 0.00 | 0.44 | 0.10 | 91 | 1007.4 |
| 20260506103402 | 45 | 16 | 0.0 | 2.0 | 0.00 | 0.44 | 0.10 | 91 | 1007.2 |
| 20260506102403 | 45 | 16 | 0.0 | 0.0 | 0.00 | 0.44 | 0.10 | 91 | 1007.2 |
| 20260506101402 | 45 | 16 | 0.0 | 0.0 | 0.00 | 0.44 | 0.10 | 91 | 1007.4 |
| 20260506100425 | 45 | 16 | 0.0 | 3.0 | 0.00 | 0.44 | 0.10 | 91 | 1007.3 |
| 20260506095402 | 46 | 16 | 0.0 | 3.0 | 0.03 | 0.44 | 0.10 | 91 | 1007.1 |
| 20260506094403 | 46 | 16 | 0.0 | 4.0 | 0.03 | 0.44 | 0.10 | 90 | 1007.6 |
| 20260506093423 | 46 | 355 | 0.0 | 2.0 | 0.02 | 0.43 | 0.09 | 91 | 1007.7 |
| 20260506092425 | 46 | 354 | 0.0 | 5.0 | 0.01 | 0.42 | 0.08 | 91 | 1007.7 |
| 20260506091403 | 47 | 1 | 1.0 | 4.0 | 0.01 | 0.42 | 0.08 | 91 | 1007.4 |
| 20260506090403 | 47 | 327 | 0.0 | 3.0 | 0.00 | 0.41 | 0.07 | 91 | 1008.1 |
| 20260506085403 | 47 | 327 | 0.0 | 2.0 | 0.00 | 0.41 | 0.07 | 91 | 1008.0 |
| 20260506084403 | 47 | 327 | 0.0 | 4.0 | 0.00 | 0.41 | 0.07 | 90 | 1007.4 |
| 20260506083403 | 47 | 312 | 0.0 | 4.0 | 0.00 | 0.41 | 0.07 | 90 | 1007.7 |
| 20260506082403 | 47 | 244 | 0.0 | 1.0 | 0.00 | 0.41 | 0.07 | 91 | 1007.7 |
| 20260506081403 | 47 | 244 | 0.0 | 0.0 | 0.00 | 0.41 | 0.07 | 90 | 1007.7 |
| 20260506080403 | 47 | 244 | 0.0 | 1.0 | 0.00 | 0.41 | 0.07 | 90 | 1007.3 |
| 20260506073403 | 47 | 242 | 0.0 | 3.0 | 0.00 | 0.40 | 0.06 | 91 | 1007.3 |
| 20260506072403 | 48 | 242 | 0.0 | 0.0 | 0.00 | 0.40 | 0.06 | 91 | 1007.7 |
| 20260506071403 | 48 | 246 | 2.0 | 6.0 | 0.00 | 0.40 | 0.06 | 91 | 1007.5 |
| 20260506070424 | 48 | 327 | 0.0 | 0.0 | 0.00 | 0.40 | 0.06 | 91 | 1007.0 |
| 20260506062424 | 49 | 327 | 0.0 | 3.0 | 0.00 | 0.40 | 0.06 | 91 | 1007.1 |
| 20260506061402 | 49 | 327 | 1.0 | 4.0 | 0.00 | 0.40 | 0.06 | 91 | 1007.5 |
| 20260506060403 | 49 | 329 | 0.0 | 3.0 | 0.00 | 0.40 | 0.06 | 91 | 1007.4 |
| 20260506051403 | 50 | 232 | 0.0 | 0.0 | 0.00 | 0.39 | 0.05 | 91 | 1007.4 |
| 20260506050403 | 51 | 232 | 0.0 | 0.0 | 0.00 | 0.39 | 0.05 | 91 | 1007.5 |
| 20260506044403 | 51 | 232 | 0.0 | 0.0 | 0.06 | 0.39 | 0.05 | 90 | 1007.1 |
| 20260506043424 | 51 | 232 | 0.0 | 0.0 | 0.04 | 0.37 | 0.03 | 90 | 1007.3 |
| 20260506042403 | 51 | 232 | 0.0 | 0.0 | 0.03 | 0.36 | 0.02 | 89 | 1006.8 |
| 20260506041403 | 51 | 232 | 0.0 | 0.0 | 0.02 | 0.35 | 0.01 | 89 | 1006.8 |
| 20260506040424 | 51 | 232 | 0.0 | 0.0 | 0.01 | 0.34 | 0.00 | 88 | 1007.0 |
| 20260506035423 | 52 | 232 | 0.0 | 0.0 | 0.06 | 0.34 | 0.34 | 87 | 1006.7 |
| 20260506034403 | 52 | 237 | 1.0 | 6.0 | 0.04 | 0.32 | 0.32 | 85 | 1006.7 |
| 20260506033402 | 52 | 252 | 0.0 | 2.0 | 0.03 | 0.31 | 0.31 | 86 | 1006.4 |
| 20260506032403 | 53 | 252 | 1.0 | 8.0 | 0.03 | 0.31 | 0.31 | 84 | 1006.4 |
| 20260506031402 | 54 | 255 | 1.0 | 7.0 | 0.03 | 0.31 | 0.31 | 82 | 1006.3 |
| 20260506030403 | 55 | 265 | 4.0 | 11.0 | 0.01 | 0.29 | 0.29 | 78 | 1006.2 |
| 20260506025424 | 56 | 259 | 6.0 | 14.0 | 0.01 | 0.28 | 0.28 | 74 | 1006.1 |
| 20260506024402 | 57 | 244 | 5.0 | 15.0 | 0.00 | 0.27 | 0.27 | 70 | 1005.8 |
| 20260506023403 | 58 | 261 | 6.0 | 16.0 | 0.00 | 0.27 | 0.27 | 70 | 1005.7 |
| 20260506020405 | 58 | 254 | 8.0 | 14.0 | 0.00 | 0.27 | 0.27 | 75 | 1005.7 |
| 20260506015405 | 59 | 257 | 8.0 | 18.0 | 0.00 | 0.27 | 0.27 | 77 | 1006.1 |
| 20260506014404 | 60 | 253 | 7.0 | 14.0 | 0.00 | 0.27 | 0.27 | 83 | 1005.7 |
| 20260506013405 | 59 | 209 | 1.0 | 9.0 | 0.00 | 0.27 | 0.27 | 85 | 1004.9 |
| 20260506012426 | 59 | 183 | 2.0 | 4.0 | 0.00 | 0.27 | 0.27 | 85 | 1004.6 |
| 20260506011406 | 59 | 183 | 0.0 | 4.0 | 0.00 | 0.27 | 0.27 | 85 | 1004.4 |
| 20260506010426 | 60 | 182 | 1.0 | 4.0 | 0.00 | 0.27 | 0.27 | 84 | 1004.3 |
| 20260506005405 | 60 | 182 | 0.0 | 5.0 | 0.00 | 0.27 | 0.27 | 84 | 1004.0 |
| 20260506004425 | 60 | 175 | 3.0 | 7.0 | 0.00 | 0.27 | 0.27 | 83 | 1004.0 |
| 20260506003405 | 61 | 174 | 1.0 | 8.0 | 0.00 | 0.27 | 0.27 | 82 | 1003.6 |
| 20260506002404 | 61 | 192 | 2.0 | 8.0 | 0.00 | 0.27 | 0.27 | 81 | 1003.5 |
| 20260506001405 | 61 | 178 | 3.0 | 12.0 | 0.00 | 0.27 | 0.27 | 81 | 1003.1 |
| 20260506000405 | 62 | 182 | 3.0 | 10.0 | 0.00 | 0.27 | 0.27 | 80 | 1003.4 |
| 20260505235404 | 63 | 184 | 2.0 | 10.0 | 0.00 | 0.27 | 0.27 | 78 | 1003.4 |
| 20260505234405 | 62 | 181 | 5.0 | 14.0 | 0.00 | 0.27 | 0.27 | 77 | 1003.1 |
| 20260505233404 | 60 | 187 | 4.0 | 8.0 | 0.00 | 0.27 | 0.27 | 82 | 1003.2 |
| 20260505232405 | 60 | 213 | 3.0 | 12.0 | 0.00 | 0.27 | 0.27 | 85 | 1003.3 |
| 20260505231404 | 60 | 201 | 1.0 | 6.0 | 0.00 | 0.27 | 0.27 | 86 | 1003.0 |
| 20260505230405 | 60 | 195 | 2.0 | 6.0 | 0.00 | 0.27 | 0.27 | 85 | 1002.6 |
| 20260505225405 | 61 | 185 | 2.0 | 11.0 | 0.00 | 0.27 | 0.27 | 85 | 1002.6 |
| 20260505224405 | 61 | 181 | 3.0 | 11.0 | 0.00 | 0.27 | 0.27 | 84 | 1002.6 |
| 20260505223406 | 61 | 168 | 5.0 | 10.0 | 0.00 | 0.27 | 0.27 | 84 | 1002.5 |
| 20260505222405 | 61 | 175 | 2.0 | 7.0 | 0.00 | 0.27 | 0.27 | 85 | 1002.7 |
| 20260505221404 | 61 | 183 | 4.0 | 7.0 | 0.00 | 0.27 | 0.27 | 83 | 1002.8 |
| 20260505220405 | 61 | 199 | 2.0 | 10.0 | 0.00 | 0.27 | 0.27 | 82 | 1002.5 |
| 20260505215405 | 60 | 196 | 6.0 | 17.0 | 0.00 | 0.27 | 0.27 | 82 | 1002.6 |
| 20260505214404 | 60 | 208 | 3.0 | 7.0 | 0.00 | 0.27 | 0.27 | 86 | 1002.8 |
| 20260505213404 | 60 | 184 | 0.0 | 8.0 | 0.00 | 0.27 | 0.27 | 85 | 1002.7 |